Flag for U.S.A. Weather past 2 weeks in Shreveport, Louisiana, U.S.A.

Now
48 °F

Overcast.


Feels Like: 45 °F
Forecast: 29 / 49 °F
Wind: 7 mph from East

Location: Shreveport Regional Airport

Current Time: Feb 28, 2015 at 5:57:24 PM

Latest Report: Feb 28, 2015 at 4:56 PM


Visibility: 10 mi

Pressure: 30.30 "Hg

Humidity: 54%

Dew point: 32 °F

Location of ShreveportLocation

Historic Weather in Shreveport — Graph

°F

Shreveport temperature yesterday

Maximum temperature yesterday: 35 °F (at 12:56 AM)
Minimum temperature yesterday: 28 °F (at 5:56 AM)
Average temperature yesterday: 33 °F

Past Weeks' High & Low Weather Summary

 TemperatureHumidityPressure
High75 °F (Feb 14, 2:56 PM)100% (Feb 16, 4:56 AM)30.50 "Hg (Feb 16, 4:56 AM)
Low27 °F (Feb 24, 1:56 AM)19% (Feb 14, 3:56 PM)29.78 "Hg (Feb 16, 6:56 AM)
Average41 °F72%30.18 "Hg
* Reported Feb 13 3:56 PM — Feb 28 3:56 PM, Shreveport, Weather by CustomWeather, © 2015

Note: Actual official high and low records may vary slightly from our data, if they occured in-between our weather recording intervals... More about our weather records

Advertising

Shreveport weather history for previous 24 hours

 ConditionsComfort  
Time TempWeatherWind HumidityBarometerVisibility
3:56 PM
Sat, Feb 28
48 °FMostly cloudy.6 mph52%30.31 "Hg10 mi
2:56 PM46 °FOvercast.5 mph51%30.32 "Hg10 mi
1:56 PM45 °FOvercast.5 mph51%30.33 "Hg10 mi
12:56 PM42 °FOvercast.6 mph55%30.37 "Hg10 mi
11:56 AM40 °FOvercast.9 mph60%30.39 "Hg10 mi
10:56 AM38 °FOvercast.12 mph60%30.42 "Hg10 mi
9:56 AM35 °FOvercast.9 mph64%30.43 "Hg10 mi
8:56 AM34 °FOvercast.10 mph67%30.42 "Hg10 mi
7:56 AM32 °FPartly sunny.9 mph66%30.43 "Hg10 mi
6:56 AM31 °FPartly sunny.10 mph69%30.43 "Hg10 mi
5:56 AM31 °FPassing clouds.12 mph69%30.42 "Hg10 mi
4:56 AM31 °FPassing clouds.9 mph73%30.41 "Hg10 mi
3:56 AM32 °FOvercast.8 mph69%30.40 "Hg10 mi
2:56 AM32 °FOvercast.9 mph69%30.42 "Hg10 mi
1:56 AM32 °FOvercast.9 mph69%30.42 "Hg10 mi
12:56 AM33 °FMostly cloudy.8 mph63%30.44 "Hg10 mi
11:56 PM
Fri, Feb 27
33 °FOvercast.9 mph63%30.46 "Hg10 mi
10:56 PM34 °FOvercast.10 mph61%30.46 "Hg10 mi
9:56 PM34 °FOvercast.9 mph61%30.47 "Hg10 mi
8:56 PM34 °FOvercast.7 mph59%30.46 "Hg10 mi
7:56 PM33 °FOvercast.12 mph61%30.45 "Hg10 mi
6:56 PM33 °FOvercast.9 mph58%30.45 "Hg10 mi
5:56 PM33 °FOvercast.14 mph58%30.45 "Hg10 mi
Weather by CustomWeather, © 2015

See weather overviewHow to use our weather pages